www.pogodaiklimat.ru

Погода и климат >> Архив погоды >> Испания >> Виго


ПОГОДА в Виго

  • Прогноз погоды в Виго
  • Монитор погоды в Виго

АРХИВ ПОГОДЫ в Виго

Время (UTC), дата Ветер
(напр.,м/с)
 
Видим.   Явления Облачность Т
(С)
Тd
(С)
f
(%)
Тe
(С)
Тes
(С)
Комфортность P
(гПа)
Po
(гПа)
Тmin
(С)
Tmax
(С)
R
(мм)
R24
(мм)
S
(см)
07 19.06 Ю 3 н/о осадки н/о +14.9 +14.3 96 +14 +14 1014.8 984.4
08 19.06 Ю 3 н/о н/о +15.4 +14.6 95 +15 +15 1015.0 984.7
09 19.06 Ю 3 12 км в посл. час дождь 10/8 100 м
[Frnb Ac As Cs]
+15.9 +14.8 93 +16 +16 1015.1 984.8 0.0
10 19.06 Ю 4 н/о н/о +16.3 +14.7 90 +16 +16 1015.6 985.4
11 19.06 Ю 3 н/о н/о +17.4 +15.0 86 +18 +18 1015.9 985.8
12 19.06 Ю 3 12 км слаб. дождь {морось} 10/5 300 м
[Frnb Ac As Cs]
+16.3 +14.8 91 +16 +20 1016.3 986.0
13 19.06 З 3 н/о в посл. час осадки н/о +17.1 +15.3 89 +17 +17 1016.4 986.2
14 19.06 З 4 н/о н/о +17.9 +13.6 76 +18 +18 1016.3 986.2
15 19.06 ЮЗ 4 20 км слаб. морось 10/8 200 м
[Frnb Ac As Cs]
+17.5 +14.5 83 +17 +18 1016.5 986.4 0.0
16 19.06 З 2 н/о осадки н/о +16.9 +14.7 87 +17 +17 1016.6 986.4
17 19.06 З 4 н/о в посл. час осадки н/о +17.1 +14.6 85 +17 +17 1016.4 986.2
18 19.06 З 6 20 км 10/3 200 м
[Frnb Ac As Cs]
+16.1 +14.3 89 +15 +15 1016.8 986.5 +18.7 0.2
19 19.06 З 2 н/о н/о +16.1 +14.0 87 +16 +16 1017.0 986.7
20 19.06 З 2 н/о н/о +15.4 +13.6 89 +15 +15 1017.2 986.8
21 19.06 З 1 н/о н/о +15.1 +13.6 91 +16 +16 1017.4 987.0
22 19.06 ЮЗ 2 н/о н/о +14.8 +13.7 93 +15 +15 1017.6 987.1
23 19.06 З 2 н/о н/о +14.8 +13.8 94 +14 +14 1017.8 987.3
00 20.06 С 1 н/о н/о +14.6 +13.8 95 +15 +15 1017.6 987.1
01 20.06 З 1 н/о н/о +14.8 +13.8 94 +15 +15 1017.5 987.0
02 20.06 С 1 н/о н/о +14.6 +14.1 97 +15 +15 1017.0 986.5
03 20.06 СЗ 1 н/о н/о +14.6 +14.1 97 +15 +15 1016.6 986.2
04 20.06 С 2 н/о н/о +14.6 +14.0 96 +14 +14 1016.5 986.1
05 20.06 С 3 н/о н/о +14.4 +14.1 98 +14 +14 1016.5 986.0
06 20.06 СВ 2 н/о н/о +14.4 +13.9 97 +14 +14 1016.7 986.2 +14.1
07 20.06 СВ 1 н/о н/о +14.7 +14.0 96 +15 +15 1016.6 986.2
08 20.06 СВ 1 н/о н/о +15.6 +14.4 93 +16 +16 1016.7 986.4
09 20.06 СВ 2 15 км 9/9 1000 м
[Cu Sc]
+17.4 +14.8 85 +18 +19 1016.4 986.3
10 20.06 СВ 2 н/о н/о +19.6 +15.0 75 +22 +22 комфорт 1016.2 986.3
11 20.06 В 3 н/о н/о +20.4 +14.6 69 +23 +23 комфорт 1016.4 986.6
12 20.06 З 2 25 км 9/9 600 м
[Cu Sc]
+20.4 +14.2 68 +23 +25 комфорт 1016.1 986.3
13 20.06 З 4 н/о н/о +20.5 +14.3 68 +23 +23 комфорт 1016.2 986.4
14 20.06 З 5 н/о н/о +20.3 +13.4 65 +22 +22 комфорт 1016.1 986.2
15 20.06 З 5 25 км 9/9 1500 м
[Cu Sc]
+19.1 +13.3 69 +20 +21 1016.2 986.2
16 20.06 З 6 н/о н/о +18.8 +12.6 67 +19 +19 1016.0 986.0
17 20.06 З 3 н/о н/о +20.5 +13.2 63 +23 +23 комфорт 1015.7 985.9
18 20.06 СЗ 4 25 км 8/3 600 м
[Cu Sc Ac trans]
+20.1 +13.8 67 +22 +23 комфорт 1015.8 985.9 +21.0
19 20.06 С 5 н/о н/о +18.8 +13.4 71 +19 +19 1016.1 986.1
20 20.06 С 4 н/о н/о +18.2 +12.9 71 +18 +18 1016.3 986.2
21 20.06 СВ 3 25 км н/о +16.7 +12.6 77 +16 +16 1017.0 986.7
22 20.06 СВ 3 н/о н/о +15.7 +12.4 81 +15 +15 1017.8 987.4
23 20.06 С 2 н/о н/о +14.9 +11.5 80 +15 +15 1018.2 987.7
00 21.06 С 3 25 км н/о +14.7 +10.9 78 +14 +14 1018.3 987.8
01 21.06 С 1 н/о н/о +12.9 +10.7 86 +13 +13 1018.6 987.9
02 21.06 СЗ 1 н/о н/о +11.9 +10.3 90 +12 +12 1018.6 987.8
03 21.06 В 1 н/о н/о +11.7 +10.2 91 +11 +11 1018.7 987.8
04 21.06 штиль 0 н/о н/о +11.3 +10.0 92 +11 +11 1018.5 987.6
05 21.06 СВ 1 н/о н/о +11.3 +10.3 94 +11 +11 1018.8 987.9
06 21.06 С 1 н/о н/о +13.4 +11.4 88 +14 +14 1018.9 988.2 +10.8
07 21.06 В 1 н/о н/о +15.6 +12.0 79 +16 +16 1018.9 988.5
08 21.06 В 1 н/о н/о +16.9 +12.0 73 +18 +18 1018.9 988.6
09 21.06 ЮВ 2 35 км 1/1 600 м
[Cu hum]
+19.4 +12.4 64 +21 +30 комфорт 1018.6 988.6
10 21.06 В 1 н/о н/о +20.1 +11.5 58 +23 +23 комфорт 1018.6 988.6
11 21.06 З 2 н/о н/о +21.0 +11.8 56 +24 +24 комфорт 1018.4 988.5
12 21.06 З 6 35 км 4/4 1000 м
[Cu hum]
+20.8 +12.7 60 +23 +27 комфорт 1018.6 988.7
13 21.06 ЮЗ 5 н/о н/о +20.8 +12.6 59 +23 +23 комфорт 1018.4 988.5
14 21.06 З 5 н/о н/о +21.8 +13.4 59 +25 +25 комфорт 1018.1 988.3
15 21.06 З 5 35 км 1/1 1000 м
[Cu hum]
+22.3 +13.1 56 +25 +33 комфорт 1017.6 987.9
16 21.06 З 6 н/о н/о +21.4 +13.0 59 +24 +24 комфорт 1017.5 987.7
17 21.06 З 7 н/о н/о +20.4 +12.4 60 +22 +22 комфорт 1017.4 987.5
18 21.06 З 5 35 км 4/1 1000 м
[Cu hum Ci sp]
+19.0 +12.1 64 +20 +21 1017.5 987.5 +22.5
19 21.06 З 5 н/о н/о +18.8 +11.8 64 +19 +19 1017.7 987.6
20 21.06 З 4 н/о н/о +17.4 +11.4 68 +17 +17 1017.7 987.5
21 21.06 СЗ 2 35 км 4/0
[Ci sp]
+15.4 +11.4 77 +16 +16 1017.5 987.1
22 21.06 СЗ 2 н/о н/о +15.1 +11.7 80 +15 +15 1017.3 986.9
23 21.06 СЗ 1 н/о н/о +14.7 +11.3 80 +16 +16 1017.1 986.6
00 22.06 штиль 0 35 км н/о +14.2 +11.2 82 +14 +14 1016.8 986.3
01 22.06 З 2 н/о н/о +14.1 +11.3 83 +14 +14 1016.7 986.2
02 22.06 С 1 н/о н/о +14.1 +11.6 85 +15 +15 1016.0 985.5
03 22.06 ЮЗ 2 35 км н/о +14.3 +11.6 84 +14 +14 1015.6 985.1
04 22.06 ЮЗ 4 н/о н/о +14.2 +11.7 85 +13 +13 1014.7 984.2
05 22.06 ЮЗ 2 н/о н/о +14.8 +11.9 83 +14 +14 1014.5 984.1
06 22.06 ЮЗ 4 25 км 9/0
[Ac As]
+14.4 +12.1 86 +13 +13 1015.0 984.6 +13.7
07 22.06 В 1 н/о н/о +15.1 +13.1 88 +16 +16 1015.0 984.6
08 22.06 ЮВ 1 н/о н/о +16.4 +13.3 82 +18 +18 1014.9 984.7
09 22.06 Ю 3 15 км 10/0
[As trans Cs]
+16.4 +13.5 83 +16 +20 1014.4 984.2
10 22.06 Ю 4 н/о н/о +16.7 +13.2 80 +16 +16 1014.0 983.8
11 22.06 Ю 5 н/о н/о +20.1 +11.2 57 +22 +22 комфорт 1013.4 983.6
12 22.06 ЮЗ 3 25 км 9/0
[As trans Cc]
+21.1 +13.1 60 +23 +33 комфорт 1013.4 983.7
13 22.06 ЮЗ 4 н/о н/о +23.5 +12.3 49 +25 +25 комфорт 1012.7 983.2
14 22.06 З 3 н/о н/о +23.6 +11.4 46 +25 +25 комфорт 1012.3 982.9
15 22.06 ЮЗ 4 25 км 10/0
[As trans Cs]
+21.9 +6.4 37 +23 +29 комфорт 1012.6 982.9
16 22.06 Ю 5 н/о н/о +21.6 +6.8 38 +22 +22 комфорт 1012.2 982.5
17 22.06 ЮЗ 4 н/о н/о +20.8 +7.9 43 +22 +22 комфорт 1012.2 982.5
18 22.06 Ю 2 25 км 10/0
[As trans Cs]
+19.8 +9.5 51 +22 +23 комфорт 1012.1 982.3 +24.2
19 22.06 Ю 4 н/о н/о +19.2 +7.5 47 +20 +20 1012.0 982.1
20 22.06 Ю 5 н/о н/о +18.3 +7.4 49 +18 +18 1012.1 982.1
21 22.06 Ю 6 25 км 10/0
[As trans Cs]
+17.9 +7.3 50 +17 +17 1012.3 982.3
22 22.06 Ю 7 н/о н/о +18.0 +7.2 49 +17 +17 1012.2 982.2
23 22.06 Ю 5 н/о осадки н/о +14.8 +10.8 77 +13 +13 1012.5 982.2
00 23.06 ЮЗ 4 20 км 10/5 600 м
[Frnb As op Cs]
+14.0 +12.4 90 +12 +12 1012.0 981.6 3
01 23.06 Ю 4 н/о осадки н/о +13.8 +12.5 92 +12 +12 1012.3 981.9
02 23.06 Ю 5 н/о осадки н/о +14.0 +13.7 98 +12 +12 1011.8 981.4
03 23.06 Ю 4 13 км 10/8 300 м
[Frnb As trans Cs]
+14.1 +13.8 98 +13 +13 1011.4 981.1 0.5
04 23.06 Ю 4 н/о осадки н/о +14.5 +14.0 97 +13 +13 1011.3 981.0
05 23.06 Ю 4 н/о в посл. час осадки н/о +14.3 +14.0 98 +13 +13 1011.2 980.9
06 23.06 Ю 4 900 м туман 10/10 100 м
[Frnb]
+14.5 +14.2 98 +13 +13 1011.4 981.1 +13.6 0.3
07 23.06 Ю 3 н/о в посл. час осадки н/о +14.8 +14.5 98 +14 +14 1011.7 981.4
08 23.06 Ю 2 н/о н/о +15.2 +14.7 97 +15 +15 1012.1 981.9
09 23.06 Ю 2 н/о н/о +15.9 +15.3 96 +16 +16 1012.3 982.1 0.0
10 23.06 0 н/о
11 23.06 0 н/о
12 23.06 0 н/о
13 23.06 ЮВ 4 н/о н/о +21.4 +13.4 60 +24 +24 комфорт 1012.3 982.7
14 23.06 Ю 3 н/о н/о +21.7 +12.9 57 +24 +24 комфорт 1012.3 982.7
15 23.06 З 4 40 км 8/8 1000 м
[Sc Ac trans]
+20.2 +14.9 72 +23 +25 комфорт 1012.3 982.6
16 23.06 З 4 н/о н/о +20.7 +15.4 72 +24 +24 комфорт 1012.3 982.6
17 23.06 З 4 н/о н/о +18.6 +15.6 83 +19 +19 1012.5 982.6
18 23.06 З 3 20 км 10/1
[Sc Cs]
+18.0 +14.6 81 +18 +20 1012.9 982.9 +22.7
19 23.06 СВ 2 н/о н/о +17.0 +14.8 87 +18 +18 1013.3 983.2
20 23.06 СВ 1 н/о н/о +16.3 +14.3 88 +17 +17 1013.5 983.3
21 23.06 СВ 1 20 км 10/0
[Cs]
+15.5 +13.7 89 +17 +17 1014.2 983.9
22 23.06 СЗ 2 н/о н/о +15.1 +13.5 90 +15 +15 1014.6 984.3
23 23.06 СЗ 2 н/о н/о +14.5 +13.2 92 +14 +14 1014.5 984.1
00 24.06 С 1 15 км 10/0
[Cs]
+14.8 +13.2 90 +15 +15 1014.4 984.0
01 24.06 В 1 н/о н/о +14.6 +13.3 92 +16 +16 1014.2 983.8
02 24.06 В 1 н/о н/о +14.2 +13.2 94 +14 +14 1014.0 983.6
03 24.06 Ю 1 20 км 9/0
[Cs]
+14.4 +13.3 93 +15 +15 1013.8 983.4
04 24.06 ЮЗ 3 н/о н/о +14.4 +13.4 94 +13 +13 1013.9 983.5
05 24.06 ЮЗ 2 н/о н/о +14.7 +13.6 93 +14 +14 1013.8 983.4
06 24.06 ЮЗ 2 12 км 10/1
[Cu hum Cs]
+14.5 +13.7 95 +14 +14 1014.3 983.9 +13.1
07 24.06 СВ 1 н/о н/о +14.6 +13.8 95 +16 +16 1014.0 983.6
08 24.06 СВ 1 н/о н/о +15.9 +14.3 90 +17 +17 1013.8 983.6
09 24.06 Ю 2 35 км {туман} 9/1 300 м
[Cu hum Ac und]
+18.1 +14.4 79 +19 +22 1014.3 984.3
10 24.06 Ю 3 н/о н/о +18.3 +14.5 79 +19 +19 1014.4 984.4
11 24.06 Ю 4 н/о н/о +19.5 +13.5 68 +21 +21 комфорт 1014.6 984.7
12 24.06 Ю 3 40 км 9/3 600 м
[Sc Ac und]
+18.7 +13.5 72 +20 +25 1014.7 984.7
13 24.06 З 3 н/о н/о +20.1 +14.5 70 +23 +23 комфорт 1014.5 984.7
14 24.06 З 5 н/о н/о +19.4 +14.6 74 +21 +21 комфорт 1014.5 984.6
15 24.06 З 6 35 км 9/4 600 м
[Sc Ac As]
+17.9 +15.0 83 +17 +19 1014.8 984.8
16 24.06 З 5 н/о н/о +18.6 +14.3 76 +19 +19 1014.9 984.9
17 24.06 З 3 н/о осадки н/о +17.4 +15.0 86 +18 +18 1014.9 984.8
18 24.06 З 4 35 км {дождь} 9/9 600 м
[Sc]
+16.9 +14.9 88 +17 +17 1015.2 985.0 +20.9 0.1
19 24.06 З 5 н/о осадки н/о +16.8 +14.4 86 +16 +16 1015.6 985.4
20 24.06 штиль 0 н/о в посл. час осадки н/о +16.6 +14.4 87 +16 +16 1015.9 985.7
21 24.06 СЗ 2 30 км 5/1 1000 м
[Sc Ac As]
+14.7 +13.6 93 +14 +14 1016.5 986.1 0.2
22 24.06 З 1 н/о н/о +14.1 +13.1 94 +14 +14 1016.9 986.4
23 24.06 З 2 н/о н/о +13.9 +12.8 93 +14 +14 1016.9 986.4
00 25.06 штиль 0 25 км 8/4 600 м
[Sc Ac As]
+13.9 +12.8 93 +13 +13 1017.0 986.5
01 25.06 С 1 н/о н/о +13.6 +12.5 93 +14 +14 1016.7 986.1
02 25.06 З 2 н/о н/о +13.4 +12.6 95 +13 +13 1016.3 985.7
03 25.06 З 2 15 км ясно +13.7 +12.8 94 +13 +13 1016.1 985.6
04 25.06 З 1 н/о н/о +13.1 +12.5 96 +13 +13 1016.3 985.7
05 25.06 штиль 0 н/о н/о +13.3 +12.8 97 +13 +13 1016.4 985.8
06 25.06 ЮЗ 2 300 м туман 6/0 2000 м
[Ac und]
+13.8 +13.3 97 +13 +13 1016.4 985.9 +12.8
07 25.06 Ю 4 н/о н/о +15.2 +13.6 90 +14 +14 1016.4 986.0
08 25.06 ЮЗ 3 н/о н/о +17.3 +14.3 83 +17 +17 1016.4 986.2
09 25.06 Ю 2 н/о н/о +19.8 +15.2 75 +23 +23 комфорт 1016.1 986.2
10 25.06 ЮЗ 3 н/о н/о +21.3 +13.2 60 +24 +24 комфорт 1016.3 986.5
11 25.06 З 3 н/о н/о +21.9 +13.2 58 +25 +25 комфорт 1016.4 986.7
12 25.06 ЮЗ 4 30 км 5/1 2000 м
[Sc Ac trans Cc]
+23.2 +13.2 53 +26 +36 жарко 1016.2 986.6
13 25.06 З 6 н/о н/о +23.2 +13.3 54 +26 +26 жарко 1015.9 986.3
14 25.06 З 5 н/о н/о +22.8 +13.2 55 +26 +26 жарко 1016.0 986.4
15 25.06 З 6 30 км 5/1 2000 м
[Sc As trans Cs]
+22.0 +13.4 58 +25 +29 комфорт 1015.8 986.1
16 25.06 З 6 н/о н/о +20.5 +13.2 63 +23 +23 комфорт 1015.8 986.0
17 25.06 З 4 н/о н/о +20.6 +13.4 63 +23 +23 комфорт 1015.7 985.9
18 25.06 З 4 н/о н/о +19.1 +13.1 68 +20 +20 1016.7 986.7 +24.0
19 25.06 СВ 3 н/о н/о +18.6 +13.7 73 +20 +20 1015.4 985.4
20 25.06 З 4 н/о осадки н/о +16.7 +14.6 87 +16 +16 1017.1 986.9
21 25.06 СЗ 2 н/о осадки н/о +16.6 +14.8 89 +17 +17 1016.8 986.6 0.4
22 25.06 Ю 1 н/о в посл. час осадки н/о +16.4 +13.9 85 +17 +17 1016.9 986.6
23 25.06 СВ 2 н/о н/о +15.9 +14.6 92 +16 +16 1016.8 986.5
00 26.06 С 4 н/о н/о +15.6 +14.6 94 +15 +15 1016.1 985.8 0.0
01 26.06 С 3 н/о н/о +15.6 +14.3 92 +15 +15 1015.4 985.1
02 26.06 С 3 н/о н/о +15.4 +14.6 95 +15 +15 1014.9 984.6
03 26.06 СВ 2 н/о н/о +15.8 +13.7 87 +16 +16 1014.8 984.5
04 26.06 СЗ 2 н/о н/о +15.8 +14.5 92 +16 +16 1014.5 984.2
05 26.06 З 2 н/о н/о +15.5 +14.2 92 +15 +15 1013.9 983.6
06 26.06 СЗ 4 н/о осадки н/о +15.3 +14.2 93 +14 +14 1014.2 983.9 +15.3 0.2
07 26.06 ЮЗ 2 н/о осадки н/о +15.3 +14.6 96 +15 +15 1015.0 984.7

 

Местоположение метеостанции Виго (Испания): широта 42.23 долгота -8.63 высота над уровнем моря 255 м.

В архиве по умолчанию представлена погода в Виго за последнюю неделю. Архивные данные за месяц целиком и за предыдущие месяцы, начиная с января 2011 года, Вы можете получить, выбрав интересующий диапазон дат из раскрывающегося списка и нажав кнопку "Ввод!".


*Определитесь, кто Вы:
робот инопланетянин человек

Внимание! Время в таблицах - всемирное. Для получения местного времени необходимо прибавить поправку, которая равна 1 ч.

Смотрите также архив погоды в соседних городах и на ближайших метеорологических станциях:

Погода в Понтеведре (Испания) (22 км)
Погода в Карбальино (Испания) (49 км)
Погода в Падроне (Испания) (57 км)
Погода в Оренсе (Испания) (64 км)
Погода в Виана-ду-Каштелу (Португалия) (68 км)
Погода в Сантьяго-де-Компостеле (Испания) (73 км)
Погода в Хинсо-де-Лимии (Испания) (76 км)
Погода в Сантьяго (Испания) (76 км)
Погода в Фистерре (Испания) (94 км)
Погода в Порту (Португалия) (111 км)

Пояснения к столбцам:

Ветер - указаны скорость ветра в м/с - средняя за 10 мин, порывы в срок и между сроками (в фигурных скобках) и направление, откуда дует ветер: С - северный, СВ - северо-восточный, В - восточный, ЮВ - юго-восточный, Ю - южный, ЮЗ - юго-западный, З - западный, СЗ - северо-западный.
Видимость - горизонтальная дальность видимости в метрах или километрах. При видимости от 1 до 10 км при отсутствии осадков обычно наблюдается дымка, при ухудшении видимости до 1 км и менее - туман. В сухую погоду видимость может ухудшаться дымом, пылью или мглою.
Явления - указаны атмосферные явления, наблюдавшиеся в срок или в последний час перед сроком; фигурными скобками обозначены явления, наблюдавшиеся между сроками (за 1-3 часа до срока); квадратными скобками обозначены град или гололедные отложения с указанием их диаметра в мм.
Облачность - указаны через наклонную черту общая и нижняя облачность в баллах и высота нижней границы облаков в метрах; квадратными скобками обозначены формы облаков: Ci - перистые, Cs - перисто-слоистые, Cc - перисто-кучевые, Ac - высококучевые, As - высокослоистые, Sc - слоисто-кучевые, Ns - слоисто-дождевые, Cu - кучевые, Cb - кучево-дождевые. Подробнее классификацию облаков см. в Атласе облаков (PDF).
T - Температура воздуха - температура, измеренная на высоте 2 м над землей.
Td - Температура точки росы - температура, при понижении до которой содержащийся в воздухе водяной пар достигнет насыщения.
f - Относительная влажность воздуха - влажноcть воздуха, измеренная на высоте 2 м над землей.
Te - Эффективная температура - температура, которую ощущает одетый по сезону человек в тени. Характеристика душности погоды. При расчете учитывается влияние влажности воздуха и скорости ветра на теплоощущения человека.
Tes - Эффективная температура на солнце - температура, которую ощущает человек, с поправкой на солнечный нагрев. Характеристика знойности погоды. Зависит от высоты солнца над горизонтом, облачности и скорости ветра. Ночью, в пасмурную погоду, а также при ветре 12 м/с и более поправка равна нулю.
P - Атмосферное давление - приведенное к уровню моря атмосферное давление.
Po - Атмосферное давление - измеренное на уровне метеостанции атмосферное давление.
Tmin - Минимальная температура - минимум температуры воздуха на высоте 2 м над землей.
Tmax - Максимальная температура - максимум температуры воздуха на высоте 2 м над землей.
R - Количество осадков - Количество выпавших осадков за период времени, мм. При наведении курсора мыши на число - период времени, за который выпало указанное количество осадков.
R24 - Количество осадков - Количество выпавших осадков за 24 часа, мм.
S - Снежный покров - Высота снежного покрова, см. При наведении курсора мыши на число - состояние снежного покрова и степень покрытия местности в баллах.